sat.trackr.live / text

‹ back to catalog

STARLINK-1402

NORAD 45685 · 2020-035AE

PAYLOAD ACTIVE UNKNOWN

§ Identity

Operator
Country
US
Launch date
2020-06-04
Launch site
AFETR
Launch vehicle
Mass (kg)
RCS (m²)

Purposes: comms

External: N2YO · Heavens-Above · Gunter

§ Orbital elements

Epoch: 2026-09-08T07:09:41.585472Z

Period
91.54 min
Inclination
53.0356°
Eccentricity
0.0005382
Mean motion
15.73110617 rev/d
Perigee alt
346.4 km
Apogee alt
353.6 km
Semi-major
6,728.2 km
B*
5.0016e-4
RAAN
214.3319°
Arg perigee
62.3056°
Mean anomaly
297.8508°
Rev number
34,784

§ Raw data

STARLINK-14021 45685U 20035AE  26251.29839798  .00069950  00000+0  50016-3 0  99922 45685  53.0356 214.3319 0005382  62.3056 297.8508 15.73110617347842

JSON: /api/v1/satellites/45685 · /tle

For live sub-satellite position, see the globe view (requires WebGL).

§ Visibility from observer

Set your observer location to see the next 7 days of passes ≥ 10°. The values pass through the URL so the page stays shareable.

No JS? Fill the form by hand. The geolocation button needs JavaScript.